www.pogodaiklimat.ru

ПОГОДА в Редмонде, OR

  • Прогноз погоды в Редмонде
  • Монитор погоды в Редмонде
  • Климат в Редмонде

АРХИВ ПОГОДЫ в Редмонде

Время (UTC), дата Ветер
(напр.,м/с)
 
Видим.   Явления Облачность Т
(С)
Тd
(С)
f
(%)
Тe
(С)
Тes
(С)
Комфортность

P
(гПа)

Po
(гПа)
Тmin
(С)
Tmax
(С)
R
(мм)
SD
(см)
22:56 17.06 С  7
{11} 
16 км    ясно  +29.4  +2.2  17  +27  +29  жарко  1015.8  909.6  +23.9  +30.6     
23:56 17.06 С  8
{11} 
16 км    ясно  +28.3  +3.9  21  +27  +28  жарко  1016.0  909.6         
00:56 18.06 С  16 км    ясно  +27.2  +5.6  25  +26  +27  жарко  1016.3  910.2         
01:56 18.06 СЗ  16 км    ясно  +25.0  +5.0  28  +25  +25  комфорт  1016.9  910.8         
02:56 18.06 С  16 км    ясно  +22.2  +4.4  31  +22  +23  комфорт  1017.5  911.4         
03:56 18.06 СЗ  16 км    ясно  +19.4  +4.4  37  +20  +20    1018.3  912.0         
04:56 18.06 СВ  16 км    ясно  +15.0  +4.4  49  +15  +15    1018.8  912.3  +15.0  +29.4     
05:56 18.06   16 км    ясно  +12.8  +3.9  55  +13  +13    1018.9  912.3         
06:56 18.06 Ю  16 км    ясно  +11.1  +3.9  61  +10  +10    1018.9  912.3         
07:56 18.06 Ю  16 км    ясно  +11.1  +4.4  63  +10  +10    1018.7  912.3         
08:56 18.06 ЮЗ  16 км    ясно  +10.6  +4.4  65  +9  +9    1018.8  912.3         
09:56 18.06 Ю  16 км    ясно  +9.4  +5.0  74  +7  +7    1018.9  912.6         
10:56 18.06 Ю  16 км    ясно  +9.4  +5.0  74  +6  +6    1019.1  912.6  +8.9  +15.0     
11:56 18.06 Ю  16 км    ясно  +10.0  +5.6  74  +8  +8    1019.3  912.6         
12:56 18.06 Ю  16 км    ясно  +13.9  +7.2  64  +13  +13    1019.4  912.9         
13:56 18.06 нст  16 км    ясно  +17.8  +7.8  52  +19  +20    1019.0  912.6         
14:56 18.06 СЗ  16 км    ясно  +20.6  +8.3  45  +22  +24  комфорт  1018.4  912.3         
15:56 18.06 СЗ  16 км    ясно  +21.7  +8.3  42  +23  +29  комфорт  1018.7  912.3         
16:56 18.06 СЗ  6
{8} 
16 км    ясно  +23.9  +7.8  36  +24  +28  комфорт  1018.5  912.0  +9.4  +23.9     
17:56 18.06 нст  16 км    ясно  +25.6  +6.1  29  +25  +38  комфорт  1018.4  912.0         
18:56 18.06 З  16 км    ясно  +26.1  +5.0  26  +25  +45  комфорт  1018.3  911.7         
19:56 18.06 С  4
{7} 
16 км    ясно  +27.2  +6.1  26  +26  +38  жарко  1018.2  911.7         
20:56 18.06 СЗ  4
{9} 
16 км    ясно  +27.8  +6.1  25  +27  +36  жарко  1018.0  911.7         
21:56 18.06 СВ  5
{9} 
16 км    ясно  +27.2  +5.0  24  +26  +32  жарко  1018.1  911.4         
22:56 18.06 С  5
{9} 
16 км    ясно  +27.2  +2.2  20  +26  +30  жарко  1017.9  911.4  +23.9  +28.3     
23:56 18.06 С  16 км    ясно  +26.7  +1.1  19  +25  +31  комфорт  1017.8  911.1         
00:56 19.06 С  5
{8} 
16 км    ясно  +25.6  +1.1  20  +24  +26  комфорт  1017.8  911.4         
01:56 19.06 З  16 км    ясно  +23.3  +0.6  22  +22  +23  комфорт  1018.0  911.7         
02:56 19.06 СЗ  16 км    ясно  +19.4  +1.1  29  +20  +20    1018.4  912.0         
03:56 19.06 СЗ  16 км    ясно  +18.3  +2.2  34  +18  +18    1018.6  912.3         
04:56 19.06 С  16 км    ясно  +16.1  +2.8  41  +16  +16    1018.9  912.6  +16.1  +27.8     
05:56 19.06 СЗ  16 км    ясно  +13.9  +2.8  47  +13  +13    1018.9  912.3         
06:56 19.06   16 км    ясно  +8.9  +2.2  63  +8  +8    1019.3  912.3         
07:56 19.06   16 км    ясно  +9.4  +2.2  61  +9  +9    1018.9  912.0         
08:56 19.06   16 км    ясно  +9.4  +2.2  61  +9  +9    1018.5  912.0         
09:56 19.06   16 км    ясно  +8.3  +1.7  63  +8  +8    1018.5  911.7         
10:56 19.06 СВ  16 км    ясно  +6.1  +1.7  73  +4  +4    1019.1  912.0  +4.4  +15.6     
11:56 19.06 нст  16 км    ясно  +8.3  +2.8  68  +6  +6    1019.2  912.3         
12:21 19.06 СЗ  16 км    ясно  +12.8  +5.6  62  +10  +10      912.3         
12:56 19.06 СЗ  16 км    ясно  +13.3  +5.0  57  +12  +12    1019.1  912.6         
13:56 19.06 СЗ  16 км    ясно  +14.4  +3.9  49  +13  +13    1019.8  912.9         
14:56 19.06 СЗ  16 км    ясно  +16.7  +0.6  34  +16  +18    1020.1  913.2         
15:56 19.06 СЗ  16 км    ясно  +17.8  +1.1  32  +17  +20    1020.2  913.2         
16:56 19.06 СЗ  6
{8} 
16 км    ясно  +19.4  -0.6  26  +19  +22    1019.9  912.9  +5.0  +20.0     
17:56 19.06 С  16 км    ясно  +20.0  -1.7  23  +20  +29    1019.3  912.3         
18:56 19.06 СЗ  8
{13} 
16 км    ясно  +22.2  -1.7  20  +21  +23  комфорт  1018.9  911.7         
19:56 19.06 З  7
{11} 
16 км    ясно  +22.8  -2.8  18  +21  +25  комфорт  1018.3  911.1         
20:56 19.06 СЗ  7
{11} 
16 км    ясно  +22.8  -2.8  18  +21  +25  комфорт  1017.6  910.8         

 

Местоположение метеостанции Roberts Field Airport: широта 44.2542 долгота -121.1497 высота над уровнем моря 938 м.

В архиве по умолчанию представлена погода в Редмонде за последние 1-2 суток. Обновление информации о фактической погоде в базе происходит ежечасно! Архивные данные за месяц целиком и за предыдущие месяцы Вы можете получить, выбрав интересующий диапазон дат из раскрывающегося списка и нажав кнопку "Ввод!".

Внимание! Архив погоды МЕТАР в базе сайта хранится не более 60 дней. Нет смысла пытаться выбрать более раннюю дату.

Внимание! Время в таблицах - всемирное. Для получения местного времени необходимо прибавить поправку, которая в Редмонде равна -8 ч.

Ветер - указаны скорость ветра в м/с и направление, откуда дует ветер: С - северный, СВ - северо-восточный, В - восточный, ЮВ - юго-восточный, Ю - южный, ЮЗ - юго-западный, З - западный, СЗ - северо-западный.
Видимость - горизонтальная дальность видимости в метрах или километрах. При видимости от 1 до 10 км при отсутствии осадков обычно наблюдается дымка, при ухудшении видимости до 1 км и менее - туман. В сухую погоду видимость может ухудшаться дымом, пылью или мглою.
Атмосферные явления - указаны явления, наблюдавшиеся в указанный момент времени.
Облачность - указаны через наклонную черту верхняя и нижняя облачность в баллах и высота нижней границы облаков в метрах. Внимание: облачность, как и прочие метеорологические величины в США измеряются автоматическими метеостанциями. Указанные значения в баллах носят условный характер и показывают процент времени, в течение которого, в среднем, лазерный луч высотомера отражался от облаков обратно.
T - Температура воздуха - температура, измеренная на высоте 2 м над землей.
Td - Температура точки росы - температура, при понижении до которой содержащийся в воздухе водяной пар достигнет насыщения.
f - Относительная влажность воздуха - влажноcть воздуха, измеренная на высоте 2 м над землей.
Te - Эффективная температура - температура, которую ощущает одетый по сезону человек в тени. Характеристика душности погоды. При расчете учитывается влияние влажности воздуха и скорости ветра на теплоощущения человека.
Tes - Эффективная температура на солнце - температура, которую ощущает человек, с поправкой на солнечный нагрев. Характеристика знойности погоды. Зависит от высоты солнца над горизонтом, облачности и скорости ветра. Ночью, в пасмурную погоду, а также при ветре 12 м/с и более поправка равна нулю.
P - Атмосферное давление - приведенное к уровню моря атмосферное давление.
Po - Атмосферное давление - измеренное на уровне метеостанции атмосферное давление.
Tmin - Минимальная температура - минимум температуры воздуха на высоте 2 м над землей.
Tmax - Максимальная температура - максимум температуры воздуха на высоте 2 м над землей.
R - Количество осадков - Количество выпавших осадков за 3 или 6 часов, мм.
SD - Снежный покров - Высота снежного покрова, см.